Regional Weather Roundup
Issued by NWS

Home | Current Version | Previous Version | Text Only | Print | Product List | Glossary On
Versions: 1 2 3 4 5 6 7 8 9 10 11 12 13 14 15 16 17 18 19 20 21 22 23 24 25 26 27 28 29 30 31 32 33 34 35 36 37 38 39 40 41 42 43 44 45 46 47 48 49 50
000
ASUS43 KFSD 261502
RWRSD

WEATHER ROUNDUP FOR SOUTH DAKOTA
NATIONAL WEATHER SERVICE SIOUX FALLS SD
1000 AM CDT FRI AUG 26 2016

NOTE: "FAIR" INDICATES FEW OR NO CLOUDS BELOW 12,000 FEET WITH NO
SIGNIFICANT WEATHER AND/OR OBSTRUCTIONS TO VISIBILITY.


SDZ001>005-009-010-012>017-261600-
NORTHWEST AND NORTH CENTRAL SOUTH DAKOTA

CITY           SKY/WX    TMP DP  RH WIND       PRES   REMARKS
FAITH            N/A     54  54 100 S10       30.13S
MOBRIDGE       MOSUNNY   59  49  69 S6        30.13S
$$

SDZ012>016-024>037-041>051-057-063-072>074-261600-
SOUTHWEST AND SOUTH CENTRAL SOUTH DAKOTA

CITY           SKY/WX    TMP DP  RH WIND       PRES   REMARKS
RAPID CTY ARPT CLOUDY    53  52  96 S6        30.15F
PIERRE         LGT RAIN  56  52  86 W9        30.16R
CUSTER         CLOUDY    48  45  89 E10       30.18F
ELLSWORTH AFB  CLOUDY    55  55  99 S9        30.13F
PHILIP         HVY RAIN  55  55 100 E9        30.15F FOG
PINE RIDGE     LGT RAIN  57  54  89 VRB5      30.14S
WINNER         FAIR      65  53  65 S7        30.15F
$$

SDZ004>011-016>023-039-040-261600-
NORTHEAST SOUTH DAKOTA

CITY           SKY/WX    TMP DP  RH WIND       PRES   REMARKS
ABERDEEN       SUNNY     61  51  70 S7        30.16S
WATERTOWN      SUNNY     62  54  74 SW5       30.17F
BROOKINGS      SUNNY     61  54  77 S3        30.18F
$$

SDZ017-020-022-023-036>040-048>070-261600-
SOUTHEAST SOUTH DAKOTA

CITY           SKY/WX    TMP DP  RH WIND       PRES   REMARKS
SIOUX FALLS    PTSUNNY   65  56  72 E6        30.18F
HURON          MOSUNNY   61  52  72 VRB3      30.16F
CHAMBERLAIN    MOSUNNY   65  55  69 SE8       30.16F
MITCHELL       CLOUDY    63  53  70 SE6       30.17F
YANKTON        MOSUNNY   63  54  72 NE3       30.16F
$$

ABBREVIATIONS USED IN REMARKS
   TC - TEMPERATURE IN CELSIUS
  WCI - WIND CHILL INDEX
   HX - HEAT INDEX
  VSB - VISIBILITY





USA.gov is the U.S. government's official web portal to all federal, state and local government web resources and services.